Weather in Dajab贸n

Dominican Republic     19掳32鈥46鈥砃   71掳42鈥20鈥砏
temp.,
掳C
wind,
m/s
gust,
m/s
humid.,
%
clouds,
%
prec.,
mm/h
press.,
hPa
HPBL,
m
27 november, sat
sat2723:00+22sw118420 0.0 101511
02:00+21ssw11865 0.0 101312
05:00+20ssw22896 0.0 101313
08:00+22ssw118234 0.0 101547
11:00+27nnw22610 0.0 1016881
14:00+29nnw43520 0.0 10141466
17:00+26nnw44631 0.0 1013639
20:00+21wsw00894 0.0 101511
28 november, sun
sun2823:00+20ssw22901 0.0 101613
02:00+20s11905 0.0 101511
05:00+19s119079 0.0 101411
08:00+21sse118516 0.0 101658
11:00+26ene226038 0.0 1016796
14:00+30nne214217 0.0 10131580
17:00+26nw44615 0.0 1013544
20:00+21wsw11875 0.0 101511
29 november, mon
mon2923:00+21sw11910 0.0 101512
02:00+20ssw11910 0.0 101411
05:00+20ssw11893 0.0 101311
08:00+21s22805 0.0 101551
11:00+28n11536 0.0 1015867
14:00+31nnw33385 0.0 10121868
17:00+27nnw555830 0.0 1012462
20:00+22sw228622 0.0 101515
30 november, tue
tue3023:00+21ssw228837 0.0 101619
02:00+21ssw228844 0.0 101515
05:00+20s1184100 0.0 101411
08:00+22s117730 0.0 101644
11:00+27ne225819 0.0 1017907
14:00+30n324558 0.0 10141637
17:00+26nnw446565 0.0 1014578
20:00+22w128932 0.0 101614
1 december, wed
wed123:00+21sw229199 0.0 101613
02:00+21s1192100 0.0 101611
05:00+20s119347 0.0 101511
08:00+21sw0188100 0.0 101747
11:00+27ne2460100 0.0 1018863
14:00+30ne234976 0.0 10151496
17:00+26nw4472100 0.1 1015452
20:00+23w229096 0.6 101731